Simultaneous Nadir Overpasses (SNOs) Predictions

Prediction of SNOs between METOP-A and TERRA Satellite Orbit:

Table of predicted SNOs for the next 14.0 days since TLE Epoch: 6/28/2014
Index Date (METOP-A) Time (METOP-A) Lat,Lon (METOP-A) SZA (METOP-A ) Date (TERRA) Time (TERRA) Lat,Lon (TERRA) SZA (TERRA ) Distance(km) Time Diff (sec)
1 06/30/2014 07:18:18 81.29, 117.66 60.95 06/30/2014 07:18:20 81.29, 117.48 60.93 3.12 2
2 06/30/2014 08:08:59 -81.28, -75.14 119.06 06/30/2014 08:07:47 -81.28, -74.96 119.08 3.04 72
3 07/03/2014 02:02:03 -81.28, 16.28 118.93 07/03/2014 02:03:06 -81.28, 16.17 118.91 1.87 63
4 07/03/2014 02:52:43 81.28,-176.05 61.12 07/03/2014 02:52:32 81.28,-176.14 61.10 1.62 11
5 07/05/2014 21:36:29 -81.28, 82.59 118.70 07/05/2014 21:37:19 -81.28, 82.52 118.69 1.24 50
6 07/
